Regional Weather Roundup
Issued by NWS

Home | Current Version | Previous Version | Text Only | Print | Product List | Glossary On
Versions: 1 2 3 4 5 6 7 8 9 10 11 12 13 14 15 16 17 18 19 20 21 22 23 24 25 26 27 28 29 30 31 32 33 34 35 36 37 38 39 40 41 42 43 44 45 46 47 48 49 50
142
ASUS44 KLIX 161510
RWRLA
LOUISIANA WEATHER ROUNDUP
NATIONAL WEATHER SERVICE NEW ORLEANS LA
1000 AM CDT TUE SEP 16 2014

NOTE: "FAIR" INDICATES FEW OR NO CLOUDS BELOW 12,000 FEET WITH NO
      SIGNIFICANT WEATHER AND/OR OBSTRUCTIONS TO VISIBILITY.
      SKY/WX - SKY CONDITION AND SIGNIFICANT WEATHER.
      TMP - AIR TEMPERATURE.    DP   - DEWPOINT TEMPERATURE.
      RH  - RELATIVE HUMIDITY.  PRES - PRESSURE.
      HX  - HEAT INDEX.         WCI  - WIND CHILL INDEX.

*  THESE STATIONS ARE NOT NWS OR FAA STATIONS AND ARE NOT UNDER
   NWS QUALITY CONTROL.

LAZ040-048-061>063-065-066-069-161600-
SOUTHEAST LOUISIANA

CITY           SKY/WX    TMP DP  RH WIND       PRES   REMARKS
N.O. AUDUBON     N/A     87  76  70 MISG        N/A  HX  97
N.O. INTL ARPT MOSUNNY   84  75  74 CALM      30.07S
N.O. LAKEFRONT MOSUNNY   84  76  76 N5        30.08S
N.O. DOWNTOWN* FAIR      84  73  70 CALM      30.08S
SLIDELL        PTSUNNY   84  75  74 CALM      30.07F
BATON ROUGE    MOSUNNY   83  75  77 CALM      30.08S
BOOTHVILLE     PTSUNNY   82  75  79 SW9       30.09S
BELLE CHASSE   PTSUNNY   84  73  69 CALM      30.07S
BOGALUSA*      FAIR      84  74  73 CALM      30.09F
GALLIANO*      NOT AVBL
NEW ROADS*     FAIR      82  76  81 CALM      30.08S
GONZALES*      PTSUNNY   83  80  91 N3        30.07F HX  96
HAMMOND*       PTSUNNY   84  73  70 CALM      30.09S
HOUMA*         NOT AVBL
PORT FOURCHON* MOSUNNY   77  73  88 W6G12     30.12F

$$

LAZ041-044-053-054-161600-
SOUTHWEST LOUISIANA

CITY           SKY/WX    TMP DP  RH WIND       PRES   REMARKS
LAKE CHARLES   MOSUNNY   85  76  74 CALM      30.07S
LAFAYETTE      PTSUNNY   84  77  79 CALM      30.07S
PATTERSON      MOSUNNY   84  79  84 CALM      30.10S HX  96
SALT POINT       N/A     84  79  85 CALM      30.07R HX  96
NEW IBERIA     SUNNY     86  75  69 CALM      30.08S HX  95
CHENAULT AIRPK MOSUNNY   84  75  74 E5        30.08S

$$

LAZ027-028-161600-
CENTRAL LOUISIANA

CITY           SKY/WX    TMP DP  RH WIND       PRES   REMARKS
FORT POLK      MOSUNNY   81  73  76 VRB6      30.09S
ALEXANDRIA INT PTSUNNY   78  71  79 E5        30.08S
ALEXANDRIA     PTSUNNY   82  72  71 E6        30.09S

$$

LAZ001-002-161600-
NORTHWEST LOUISIANA

CITY           SKY/WX    TMP DP  RH WIND       PRES   REMARKS
SHREVEPORT     PTSUNNY   80  69  69 VRB5      30.11S
BARKSDALE AFB  MOSUNNY   78  71  79 VRB2      30.12S
DTN SHREVEPORT PTSUNNY   77  69  76 E5        30.11F

$$

LAZ014-016-161600-
NORTHEAST LOUISIANA

CITY           SKY/WX    TMP DP  RH WIND       PRES   REMARKS
MONROE         CLOUDY    78  68  71 CALM      30.12S
TALLULAH       PTSUNNY   80  70  71 NE7       30.11S

$$




USA.gov is the U.S. government's official web portal to all federal, state and local government web resources and services.